Regional Weather Roundup
Issued by NWS Charleston, SC

Current Version | Previous Version | Graphics & Text | Print | Product List | Glossary On
Versions: 1 2 3 4 5 6 7 8 9 10 11 12 13 14 15 16 17 18 19 20 21 22 23 24 25 26 27 28 29 30 31 32 33 34 35 36 37 38 39 40 41 42 43 44 45 46 47 48 49 50
000
ASUS42 KCHS 031413
RWRCHS

REGIONAL WEATHER ROUNDUP
NATIONAL WEATHER SERVICE CHARLESTON SC
1000 AM EDT TUE MAY 03 2016

NOTE: "FAIR" INDICATES FEW OR NO CLOUDS BELOW 12,000 FEET WITH NO
SIGNIFICANT WEATHER AND/OR OBSTRUCTIONS TO VISIBILITY.

NOT ALL STATIONS ARE QUALITY CONTROLLED. USE DATA WITH CAUTION...
ESPECIALLY DEWPOINT OBSERVATIONS.

SCZ027-030-031-034>040-042>050-031500-
...SOUTHEAST SOUTH CAROLINA...

CITY           SKY/WX    TMP DP  RH WIND       PRES   REMARKS
N CHARLESTON   PTSUNNY   79  70  74 W10       29.87R
WATERFRONT PRK   N/A     78  72  81 SW7       29.84F
MOUNT PLEASANT NOT AVBL
JOHNS ISLAND   NOT AVBL
PINOPOLIS        N/A     79  72  78 W8        29.78F
MONCKS CORNER  PTSUNNY   73  66  78 W5        29.87R
SUMMERVILLE    FAIR      79  73  83 SW6       29.88F
BEAUFORT MCAS  CLOUDY    80  71  74 W10       29.88S
BEAUFORT ARPT  FAIR      79  70  73 W12       29.88S HAZE
HILTON HEAD IS   N/A     79  70  73 SW12      29.90S
WALTERBORO     NOT AVBL
ALLENDALE      FAIR      77  68  73 W7        29.88S

...SOUTHERN MIDLANDS AND PEE DEE...

CITY           SKY/WX    TMP DP  RH WIND       PRES   REMARKS
GEORGETOWN     NOT AVBL
KINGSTREE      NOT AVBL
ORANGEBURG     PTSUNNY   76  70  82 W8        29.87F
BARNWELL       NOT AVBL
AIKEN          NOT AVBL
MANNING        NOT AVBL
COLUMBIA       CLOUDY    73  68  84 W9        29.86F
SUMTER         PTSUNNY   70  66  88 W6        29.85S
FLORENCE       CLOUDY    69  66  90 SW5       29.87F
MYRTLE BEACH   CLOUDY    73  64  73 W3        29.89S
N MYRTLE BEACH LGT RAIN  69  67  93 VRB3      29.88R

$$

GAZ063-065-086>088-099>101-113>116-118-119-134>141-150-031500-
...SOUTHEAST GEORGIA...

CITY           SKY/WX    TMP DP  RH WIND       PRES   REMARKS
SAVANNAH ARPT  PTSUNNY   78  70  76 W13       29.90S
HUNTER AAF     MOSUNNY   78  73  85 W16       29.87S
FORT STEWART   CLOUDY    76  70  82 W10       29.89S
STATESBORO     MOSUNNY   80  74  83 W7        29.90S
SYLVANIA       MOSUNNY   78  72  82 W5        29.90S
CLAXTON        PTSUNNY   76  73  90 SW8       29.91S

...CSRA...CENTRAL AND FAR SOUTHEAST GEORGIA...

CITY           SKY/WX    TMP DP  RH WIND       PRES   REMARKS
THOMSON        MOSUNNY   74  71  88 W6        29.94R
AUGUSTA-BUSH   PTSUNNY   75  68  78 W8        29.87S
AUGUSTA-DANIEL CLOUDY    72  66  81 VRB7      29.89S
SWAINSBORO     PTSUNNY   75  68  78 W9        29.92R
VIDALIA        MOSUNNY   73  70  88 W6        29.92F
EASTMAN        CLOUDY    74  73  97 W6        29.95S
HAZLEHURST     PTSUNNY   75  71  87 W3        29.92S
ALMA           CLOUDY    69  69 100 W3        29.95R THUNDER
WAYCROSS       CLOUDY    76  72  86 W10       29.94R THUNDER
JESUP          CLOUDY    77  73  88 W3        29.93R
BAXLEY         CLOUDY    77  73  88 SW6       29.94R THUNDER
BRUNSWICK      PTSUNNY   82  72  69 SW12      29.92S
SAINT SIMONS   MOSUNNY   78  70  76 W13G22    29.91F

$$

SCZ027-028-034-036>038-045-046-048>050-GAZ119-141-031500-
...LAKE AND SUPPLEMENTAL COASTAL OBSERVATIONS...

STATION/POSITION TIME  TEMP    WIND        PRES    WAVE   SWELL
                       AIR SEA DIR/SP/G            HT/PER HT/PER/DIR
                 (UTC) (F)     (DEG/KT/KT) (MB)    (FT/S) (FT/S/D)
WINYAH BAY       1245   74     200/  7     1011.0
LAKE MURRAY      1300   69     250/  6/ 10 1010.8S
ACE BASIN NERRS  NOT AVBL
FORT PULASKI     1300   76 74  250/ 10/ 15 1012.4R
SAPELO ISLAND    1300   76     250/ 12     1013.0S

$$

ANZ835-935-AMZ111-154-330-350-352-354-370-450-454-472-031500-
...C-MAN AND BUOY OBSERVATIONS...

STATION/POSITION TIME  TEMP    WIND        PRES    WAVE   SWELL
                       AIR SEA DIR/SP/G            HT/PER HT/PER/DIR
                 (UTC) (F)     (DEG/KT/KT) (MB)    (FT/S) (FT/S/D)
BUOY 41004       1250   75 74  210/ 14/ 16 1011.1    5/ 6   2/10
BUOY 41008       NOT AVBL
FOLLY BEACH CMAN 1400   80     250/  8/ 11 1011.7R
CAPERS NEARSHORE 1308   74 72  240/ 14/ 16 1011.2F
FRIPP NEARSHORE  1308   74 73  260/ 10/ 12 1011.2R


STATION/POSITION TIME  TEMP    WIND        PRES    WAVE   SWELL
                       AIR SEA DIR/SP/G            HT/PER HT/PER/DIR
                 (UTC) (F)     (DEG/KT/KT) (MB)    (FT/S) (FT/S/D)
5E ST. MARYS GA  1321      72                N/A     3/ 5
FRYING PAN BUOY  1300   73 73  180/ 17/ 23 1012.3R
BUOY 41025       1250   74 73  230/ 21/ 25 1010.8    5/ 6   2/110/ 9
CAPE LOOKOUT NC  1400   64     280/  7/  9 1012.6F
BUOY 41002       1250   74 74  180/ 16/ 19 1015.8    4/ 5   2/ 90/ 9
BUOY 41010       1320   78 78  190/ 17/ 21 1014.7R
ST AUGUSTINE FL  1400   79 71  230/  9/ 11 1014.8S


$$



USA.gov is the U.S. government's official web portal to all federal, state and local government web resources and services.